Location: ?????
(42.1969°N, 43.5314°E)
Time: 01:43:45
(UTC+00:00)

Daily predictions for brighter satellites

Satellite Brightness Start Highest point End
(mag) Time Altitude Azimuth Time Altitude Azimuth Time Altitude Azimuth
SeaSat 1 3.9 00:00:08 10° NE 00:04:30 31° ESE 00:08:09 13° SSE
Cosmos 1892 Rocket 3.8 00:03:48 10° NNW 00:08:06 48° W 00:09:01 41° SW
COBE Rocket 4.4 00:08:04 34° WSW 00:08:22 34° W 00:12:37 10° NNW
Cosmos 1461 3.2 00:10:40 40° WSW 00:12:01 60° NW 00:16:31 10° NNE
Cosmos 2082 4.3 00:11:37 29° WSW 00:13:55 42° WNW 00:19:15 10° NNE
CZ-2D R/B 3.4 00:11:49 10° NNE 00:15:52 76° E 00:17:52 29° S
CZ-2C R/B 3.7 00:12:59 10° NNE 00:16:43 44° E 00:19:22 17° SSE
ATLAS CENTAUR R/B 4.2 00:17:34 10° ESE 00:18:10 10° ESE 00:18:46 10° E
Cosmos 1340 Rocket 2.9 00:18:42 39° SW 00:19:56 58° W 00:23:53 10° N
Cosmos 2112 Rocket 4.1 00:17:15 10° NNW 00:22:20 53° WSW 00:26:24 15° S
Meteor 1-24 Rocket 4.3 00:20:08 10° NNW 00:24:58 33° W 00:26:47 26° SW
NOSS 2-3 (E) 3.7 00:23:06 28° SSW 00:25:13 69° ESE 00:30:00 10° NE
ERS-2 3.5 00:22:26 10° SE 00:25:51 40° ENE 00:29:17 10° N
Cosmos 1953 2.4 00:23:38 22° S 00:26:09 77° E 00:30:11 10° N
SL-16 R/B 2.6 00:21:43 10° NW 00:26:59 39° WSW 00:30:51 17° SSW
SL-4 R/B 1.5 00:23:56 10° NW 00:27:22 85° NE 00:30:46 10° ESE
SL-16 R/B 4.1 00:28:37 15° W 00:28:59 15° W 00:32:34 10° NW
Cosmos 1937 Rocket 3.6 00:26:45 26° SW 00:29:41 63° WNW 00:34:59 10° NNE
USA 267 3.3 00:24:48 10° SE 00:31:21 86° NE 00:37:56 10° NW
Cosmos 1726 2.0 00:29:36 27° SSW 00:31:29 79° W 00:35:10 10° N
NOSS 3-1 (C) 3.4 00:30:01 25° SW 00:33:15 62° NW 00:39:30 10° NNE
Cosmos 1898 Rocket 4.1 00:31:24 24° WSW 00:34:01 42° WNW 00:39:00 10° N
ARIANE 5 R/B 2.8 00:29:25 10° N 00:34:29 52° WNW 00:37:43 22° SW
H-2A R/B 2.2 00:31:08 10° SSE 00:35:14 71° ENE 00:39:20 10° N
CZ-2D R/B 4.2 00:33:09 10° NNW 00:35:40 13° WNW 00:38:05 10° W
IDEFIX/ARIANE 42P 2.5 00:31:49 10° N 00:37:00 76° WNW 00:41:07 17° SSW
BREEZE-M TANK 3.2 00:36:15 10° WNW 00:39:46 83° SSW 00:50:39 10° ESE
Cosmos 1680 Rocket 4.3 00:35:26 10° NW 00:39:59 31° W 00:42:46 19° SSW
Cosmos 1553 Rocket 4.4 00:37:41 10° S 00:43:39 63° E 00:49:39 10° NNE
Cosmos 1607 4.4 00:37:50 10° NW 00:43:43 38° WSW 00:49:35 10° S
Timation 1 Rocket 4.5 00:39:47 20° SW 00:43:53 62° WNW 00:49:49 10° NNE
ADEOS II 3.4 00:40:38 10° NNW 00:44:47 24° WNW 00:47:28 16° WSW
Cosmos 1544 Rocket 4.4 00:42:52 22° WSW 00:44:56 33° WNW 00:49:00 10° N
Cosmos 2263 Rocket 2.1 00:42:10 16° SSW 00:46:39 88° WNW 00:52:15 10° NNE
NOSS 2-3 (D) 3.6 00:46:11 21° SW 00:48:59 78° NW 00:53:51 10° NNE
Cosmos 2297 Rocket 4.3 00:46:42 10° WNW 00:49:21 13° NW 00:52:00 10° NNW
CZ-4C R/B 2.7 00:48:12 10° S 00:51:23 71° WSW 00:54:39 10° NNW
Meteor 2-10 4.3 00:48:18 15° SSW 00:52:37 56° WNW 00:58:09 10° N
Cosmos 372 Rocket 4.0 00:48:15 14° SSW 00:52:45 83° WNW 00:58:01 10° NNE
COSMOS 2441 4.3 00:50:05 10° NNE 00:54:54 84° WNW 00:59:43 10° SSW
CZ-4B R/B 3.7 00:52:37 10° SE 00:55:28 27° ENE 00:58:17 10° NNE
Cosmos 1703 3.4 00:56:39 10° N 01:00:39 80° E 01:04:35 10° S
OAO 3 Rocket 4.4 01:00:01 15° SW 01:03:19 29° SSE 01:07:32 10° ESE
Meteor 2-21 Rocket 4.5 00:59:18 10° NNW 01:05:15 61° W 01:11:12 10° S
Cosmos 1125 Rocket 4.2 01:00:15 10° S 01:05:18 54° ESE 01:10:26 10° NNE
Cosmos 1602 Rocket 3.9 01:01:55 10° NNW 01:06:04 43° W 01:10:10 10° SSW
USA 229 DEB 4.1 01:01:07 14° WSW 01:06:34 49° NW 01:13:13 10° NNE
USA 229 4.1 01:01:13 14° WSW 01:06:38 49° NW 01:13:16 10° NNE
CZ-2C R/B 2.6 01:02:06 10° NNE 01:06:40 66° ESE 01:11:15 10° S
Cosmos 1603 3.7 01:00:57 10° NNW 01:06:41 71° WSW 01:12:20 10° SSE
Cosmos 1606 Rocket 3.9 01:03:00 10° S 01:07:25 69° E 01:11:53 10° NNE
Meteor 2-16 Rocket 4.4 01:02:37 10° NNW 01:08:45 69° W 01:14:50 10° S
DEBRIS 1.6 01:07:51 16° SW 01:09:45 81° SSE 01:11:48 10° ENE
S3M 4.3 01:04:10 10° S 01:10:30 75° E 01:16:54 10° N
Cosmos 1844 Rocket 4.3 01:08:40 10° SSE 01:13:32 32° ESE 01:18:25 10° NE
Cosmos 1300 4.2 01:10:38 10° SSE 01:14:10 38° E 01:17:43 10° NNE
NOSS 2-3 (C) 4.3 01:13:41 12° WSW 01:17:24 43° NW 01:22:09 10° NNE
SL-08 R/B 4.5 01:11:13 10° N 01:17:24 75° W 01:23:37 10° S
NOSS 3-1 (A) 3.7 01:12:40 12° WSW 01:17:37 51° NW 01:23:48 10° NNE
ATLAS 3B CENTAUR R/B 3.9 01:14:07 10° WSW 01:21:01 21° SSW 01:25:06 10° SSE
Cosmos 2298 Rocket 4.1 01:17:08 10° SSW 01:22:24 63° WNW 01:27:42 10° NNE
ADEOS Rocket 4.3 01:15:15 10° SSE 01:22:37 62° ENE 01:30:18 10° N
SAR-Lupe-1 4.5 01:20:14 10° SSE 01:23:47 68° ENE 01:27:21 10° N
Cosmos 1484 Rocket 4.4 01:20:31 10° NNE 01:23:55 33° E 01:27:17 10° SSE
Cosmos 1726 Rocket 3.7 01:21:00 10° S 01:25:27 86° E 01:29:56 10° N
Cosmos 2084 4.1 01:22:51 10° SSW 01:27:07 56° ESE 01:31:28 10° NE
MSX 4.4 01:25:17 10° N 01:30:37 40° WNW 01:35:57 10° SW
ALOS 3.6 01:26:17 10° NNE 01:30:44 41° E 01:35:08 10° S
Cosmos 1943 3.4 01:28:30 10° NW 01:33:55 50° WSW 01:39:17 10° S
